EW3139 Weather Reports


time (UTC)temp
C
wind
direction
speed
KPH
gust
KPH
rain 1hr
cm
rain 24hr
cm
rain mn
cm
humidity
%
barometer
mb
20260507090006 9 176 4.8 14.5 0.00 0.00 0.00 31 1014.0
20260507085504 8 190 4.8 14.5 0.00 0.00 0.00 31 1014.2
20260507085006 8 206 6.4 16.1 0.00 0.00 0.00 30 1014.2
20260507084505 8 189 8.0 16.1 0.00 0.00 0.00 30 1014.3
20260507084006 8 182 8.0 16.1 0.00 0.00 0.00 29 1014.3
20260507083506 8 186 9.7 16.1 0.00 0.00 0.00 29 1014.3
20260507083005 8 194 8.0 19.3 0.00 0.00 0.00 29 1014.3
20260507082505 8 185 8.0 19.3 0.00 0.00 0.00 29 1014.4
20260507082004 8 167 4.8 16.1 0.00 0.00 0.00 29 1014.2
20260507081506 9 164 4.8 16.1 0.00 0.00 0.00 29 1014.3
20260507081004 9 150 4.8 14.5 0.00 0.00 0.00 28 1014.2
20260507080506 8 155 4.8 14.5 0.00 0.00 0.00 29 1014.2
20260507080005 8 160 6.4 17.7 0.00 0.00 0.00 30 1014.2
20260507075506 8 154 4.8 17.7 0.00 0.00 0.00 31 1014.2
20260507075004 8 165 6.4 17.7 0.00 0.00 0.00 33 1014.2
20260507074505 8 174 8.0 22.5 0.00 0.00 0.00 31 1014.2
20260507074004 8 176 6.4 22.5 0.00 0.00 0.00 32 1014.2
20260507073506 8 174 6.4 19.3 0.00 0.00 0.00 32 1014.2
20260507072004 8 186 4.8 14.5 0.00 0.00 0.00 33 1014.3
20260507071506 8 201 6.4 17.7 0.00 0.00 0.00 33 1014.3
20260507071004 8 202 3.2 17.7 0.00 0.00 0.00 34 1014.4
20260507070506 7 179 3.2 17.7 0.00 0.00 0.00 36 1014.4
20260507070009 7 187 6.4 14.5 0.00 0.00 0.00 35 1014.4
20260507065507 7 188 6.4 14.5 0.00 0.00 0.00 35 1014.5
20260507064506 7 157 4.8 14.5 0.00 0.00 0.00 36 1014.4
20260507064004 7 166 4.8 14.5 0.00 0.00 0.00 37 1014.4
20260507063504 7 163 4.8 14.5 0.00 0.00 0.00 39 1014.4
20260507063006 7 178 6.4 16.1 0.00 0.00 0.00 40 1014.4
20260507062504 6 188 4.8 16.1 0.00 0.00 0.00 42 1014.5
20260507062006 6 183 6.4 16.1 0.00 0.00 0.00 44 1014.4
20260507061006 6 178 3.2 12.9 0.00 0.00 0.00 45 1014.3
20260507060006 6 165 4.8 16.1 0.00 0.00 0.00 47 1014.1
20260507055006 5 170 4.8 9.7 0.00 0.00 0.00 47 1014.2
20260507054006 5 173 3.2 12.9 0.00 0.00 0.00 50 1014.2
20260507053504 5 176 4.8 12.9 0.00 0.00 0.00 51 1014.2
20260507053006 4 171 4.8 12.9 0.00 0.00 0.00 51 1014.2
20260507052504 4 171 4.8 12.9 0.00 0.00 0.00 52 1014.1
20260507052006 4 177 3.2 11.3 0.00 0.00 0.00 55 1014.1
20260507051504 3 172 4.8 8.0 0.00 0.00 0.00 57 1014.0
20260507051008 3 179 4.8 9.7 0.00 0.00 0.00 58 1014.1
20260507050504 3 183 4.8 9.7 0.00 0.00 0.00 60 1014.0
20260507050006 2 169 3.2 9.7 0.00 0.00 0.00 63 1014.2
20260507045505 2 165 3.2 9.7 0.00 0.00 0.00 65 1014.2
20260507045006 1 166 4.8 9.7 0.00 0.00 0.00 65 1014.2
20260507044504 1 170 3.2 9.7 0.00 0.00 0.00 68 1014.2
20260507044006 1 179 3.2 9.7 0.00 0.00 0.00 70 1014.3
20260507043504 0 183 3.2 8.0 0.00 0.00 0.00 72 1014.2
20260507043004 0 175 3.2 8.0 0.00 0.00 0.00 73 1014.2
20260507042506 0 168 1.6 8.0 0.00 0.00 0.00 75 1014.1
20260507042004 0 168 1.6 6.4 0.00 0.00 0.00 76 1014.1
20260507041006 -1 165 0.0 1.6 0.00 0.00 0.00 79 1014.1
20260507040504 -1 170 0.0 6.4 0.00 0.00 0.00 80 1014.1
20260507040006 -1 172 0.0 6.4 0.00 0.00 0.00 81 1014.1
20260507035504 -2 169 0.0 3.2 0.00 0.00 0.00 82 1014.1
20260507034506 -2 169 0.0 3.2 0.00 0.00 0.00 83 1014.2
20260507033004 -2 179 0.0 3.2 0.00 0.00 0.00 84 1014.3
20260507032506 -2 181 0.0 3.2 0.00 0.00 0.00 84 1014.2
20260507032004 -3 194 1.6 4.8 0.00 0.00 0.00 85 1014.3
20260507031506 -3 204 0.0 4.8 0.00 0.00 0.00 85 1014.2
20260507030506 -3 221 0.0 3.2 0.00 0.00 0.00 86 1014.2
20260507030004 -3 225 0.0 3.2 0.00 0.00 0.00 86 1014.2
20260507025506 -3 243 0.0 3.2 0.00 0.00 0.00 87 1014.1
20260507025004 -3 243 0.0 1.6 0.00 0.00 0.00 87 1014.1
20260507024506 -3 243 0.0 1.6 0.00 0.00 0.00 87 1014.1
20260507024005 -4 243 0.0 3.2 0.00 0.00 0.00 87 1014.1
20260507023508 -4 243 0.0 3.2 0.00 0.00 0.00 87 1014.1
20260507023004 -4 243 0.0 1.6 0.00 0.00 0.00 87 1014.1
20260507022506 -4 243 0.0 3.2 0.00 0.00 0.00 87 1014.1
20260507022004 -4 257 0.0 3.2 0.00 0.00 0.00 87 1014.1
20260507021506 -4 269 0.0 1.6 0.00 0.00 0.00 87 1014.1
20260507021004 -4 0 0.0 0.0 0.00 0.00 0.00 86 1014.0
20260507020005 -4 269 0.0 1.6 0.00 0.00 0.00 86 1014.1
20260507015506 -4 270 0.0 1.6 0.00 0.00 0.00 86 1014.1
20260507015004 -4 0 0.0 0.0 0.00 0.00 0.00 85 1014.0
20260507014506 -4 0 0.0 0.0 0.00 0.00 0.00 85 1014.0
20260507014004 -4 0 0.0 0.0 0.00 0.00 0.00 85 1014.0
20260507013506 -3 0 0.0 0.0 0.00 0.00 0.00 85 1014.0
20260507013005 -3 0 0.0 0.0 0.00 0.00 0.00 85 1014.0
20260507012506 -3 0 0.0 0.0 0.00 0.00 0.00 85 1014.0
20260507012004 -3 0 0.0 0.0 0.00 0.00 0.00 85 1014.0
20260507011004 -3 0 0.0 0.0 0.00 0.00 0.00 86 1014.0
20260507010505 -3 0 0.0 0.0 0.00 0.00 0.00 85 1014.0
20260507010005 -3 0 0.0 0.0 0.00 0.00 0.00 86 1014.0
20260507005506 -3 0 0.0 0.0 0.00 0.00 0.00 86 1014.0
20260507005005 -3 0 0.0 0.0 0.00 0.00 0.00 86 1014.0
20260507004006 -3 0 0.0 0.0 0.00 0.00 0.00 86 1013.9
20260507003504 -3 0 0.0 0.0 0.00 0.00 0.00 85 1013.9
20260507003006 -3 0 0.0 0.0 0.00 0.00 0.00 85 1013.9
20260507002504 -3 0 0.0 0.0 0.00 0.00 0.00 85 1013.8
20260507002006 -3 0 0.0 0.0 0.00 0.00 0.00 84 1013.8
20260507001504 -3 0 0.0 0.0 0.00 0.00 0.00 84 1013.8
20260507001005 -3 0 0.0 0.0 0.00 0.00 0.00 83 1013.8
20260507000006 -3 0 0.0 0.0 0.00 0.00 0.00 83 1013.8
20260506235504 -3 0 0.0 0.0 0.00 0.00 0.00 83 1013.9
20260506235006 -3 0 0.0 0.0 0.00 0.00 0.00 83 1013.9
20260506234006 -3 0 0.0 0.0 0.00 0.00 0.00 82 1013.8
20260506233504 -3 0 0.0 0.0 0.00 0.00 0.00 82 1013.8
20260506233004 -3 0 0.0 0.0 0.00 0.00 0.00 83 1013.7
20260506232506 -3 0 0.0 0.0 0.00 0.00 0.00 82 1013.7
20260506232006 -2 0 0.0 0.0 0.00 0.00 0.00 82 1013.7
20260506231504 -2 0 0.0 0.0 0.00 0.00 0.00 82 1013.7
20260506231004 -2 0 0.0 0.0 0.00 0.00 0.00 82 1013.7
20260506230506 -2 0 0.0 0.0 0.00 0.00 0.00 82 1013.7
20260506224505 -2 0 0.0 0.0 0.00 0.00 0.00 80 1013.6
20260506224006 -2 0 0.0 0.0 0.00 0.00 0.00 80 1013.6
20260506223504 -2 0 0.0 0.0 0.00 0.00 0.00 80 1013.5
20260506222504 -2 0 0.0 0.0 0.00 0.00 0.00 80 1013.4
20260506222006 -2 0 0.0 0.0 0.00 0.00 0.00 79 1013.4
20260506221505 -1 0 0.0 0.0 0.00 0.00 0.00 79 1013.4
20260506221005 -1 0 0.0 0.0 0.00 0.00 0.00 78 1013.3
20260506220505 -1 0 0.0 0.0 0.00 0.00 0.00 78 1013.2
20260506220004 -1 0 0.0 0.0 0.00 0.00 0.00 78 1013.2
20260506215506 -1 0 0.0 0.0 0.00 0.00 0.00 78 1013.3
20260506215004 -1 0 0.0 0.0 0.00 0.00 0.00 78 1013.2
20260506214505 -1 0 0.0 0.0 0.00 0.00 0.00 77 1013.3
20260506214004 -1 0 0.0 0.0 0.00 0.00 0.00 77 1013.2
20260506213504 -1 0 0.0 0.0 0.00 0.00 0.00 77 1013.1
20260506213004 -1 0 0.0 0.0 0.00 0.00 0.00 76 1013.1
20260506212503 0 0 0.0 0.0 0.00 0.00 0.00 76 1013.0
20260506212005 0 0 0.0 0.0 0.00 0.00 0.00 76 1012.9
20260506211005 0 0 0.0 0.0 0.00 0.00 0.00 74 1012.9
20260506210504 0 0 0.0 0.0 0.00 0.00 0.00 74 1012.9
20260506210006 0 0 0.0 0.0 0.00 0.00 0.00 74 1012.8
20260506205504 0 0 0.0 0.0 0.00 0.00 0.00 73 1012.8
20260506205005 0 270 0.0 1.6 0.00 0.00 0.00 72 1012.8
20260506204503 0 270 0.0 1.6 0.00 0.00 0.00 72 1012.9
20260506204005 0 0 0.0 0.0 0.00 0.00 0.00 71 1012.9
20260506203503 1 0 0.0 0.0 0.00 0.00 0.00 70 1012.8
20260506203005 1 0 0.0 0.0 0.00 0.00 0.00 70 1012.8
20260506202503 1 0 0.0 0.0 0.00 0.00 0.00 69 1012.7
20260506202005 1 0 0.0 0.0 0.00 0.00 0.00 68 1012.7
20260506201503 1 0 0.0 0.0 0.00 0.00 0.00 67 1012.7
20260506201005 2 0 0.0 0.0 0.00 0.00 0.00 66 1012.6
20260506200504 2 0 0.0 0.0 0.00 0.00 0.00 65 1012.6
20260506200005 2 0 0.0 0.0 0.00 0.00 0.00 64 1012.5
20260506195503 2 0 0.0 0.0 0.00 0.00 0.00 63 1012.4
20260506195003 3 0 0.0 0.0 0.00 0.00 0.00 62 1012.4
20260506194003 3 270 0.0 1.6 0.00 0.00 0.00 60 1012.3
20260506193505 3 270 0.0 1.6 0.00 0.00 0.00 59 1012.3
20260506193004 4 265 0.0 1.6 0.00 0.00 0.00 59 1012.3
20260506192505 4 263 1.6 9.7 0.00 0.00 0.00 58 1012.3
20260506192005 4 249 3.2 9.7 0.00 0.00 0.00 57 1012.3
20260506191005 5 241 3.2 9.7 0.00 0.00 0.00 56 1012.4
20260506190504 5 243 3.2 9.7 0.00 0.00 0.00 55 1012.3
20260506190006 5 255 4.8 12.9 0.00 0.00 0.00 55 1012.2
20260506185504 5 255 4.8 12.9 0.00 0.00 0.00 55 1012.1
20260506185005 5 247 4.8 12.9 0.00 0.00 0.00 55 1012.2
20260506184504 5 241 4.8 12.9 0.00 0.00 0.00 55 1012.2
20260506184005 5 241 4.8 16.1 0.00 0.00 0.00 55 1012.2
20260506183503 6 242 4.8 16.1 0.00 0.00 0.00 55 1012.2
20260506183005 6 231 4.8 14.5 0.00 0.00 0.00 55 1012.2
20260506182504 6 238 4.8 14.5 0.00 0.00 0.00 55 1012.1
20260506182005 6 242 4.8 14.5 0.00 0.00 0.00 55 1012.0
20260506181503 6 240 4.8 12.9 0.00 0.00 0.00 54 1011.9
20260506181005 6 258 6.4 12.9 0.00 0.00 0.00 53 1011.8
20260506180504 6 269 4.8 12.9 0.00 0.00 0.00 53 1011.7
20260506175503 6 254 4.8 14.5 0.00 0.00 0.00 52 1011.7
20260506175005 7 251 6.4 19.3 0.00 0.00 0.00 52 1011.7
20260506174504 7 251 6.4 19.3 0.00 0.00 0.00 52 1011.7
20260506174005 7 258 4.8 17.7 0.00 0.00 0.00 51 1011.6
20260506173505 7 258 6.4 14.5 0.00 0.00 0.00 50 1011.5
20260506173004 7 250 6.4 14.5 0.00 0.00 0.00 50 1011.5
20260506172004 7 227 8.0 17.7 0.00 0.00 0.00 49 1011.4
20260506171505 7 222 6.4 17.7 0.00 0.00 0.00 49 1011.4
20260506170505 8 240 6.4 16.1 0.00 0.00 0.00 48 1011.2
20260506165505 8 228 6.4 14.5 0.00 0.00 0.00 46 1011.1
20260506164504 8 243 6.4 16.1 0.00 0.00 0.00 46 1011.2
20260506164004 8 256 8.0 16.1 0.00 0.00 0.00 46 1011.2
20260506163505 8 258 8.0 16.1 0.00 0.00 0.00 45 1011.1
20260506163004 8 245 8.0 17.7 0.00 0.00 0.00 45 1011.1
20260506162505 8 232 8.0 17.7 0.00 0.00 0.00 46 1011.1
20260506162004 8 228 6.4 17.7 0.00 0.00 0.00 46 1011.1
20260506161505 8 247 4.8 14.5 0.00 0.00 0.00 47 1011.0
20260506160004 8 267 8.0 16.1 0.00 0.00 0.00 47 1011.0
20260506155005 8 234 6.4 16.1 0.00 0.00 0.00 46 1010.9
20260506154005 8 259 11.3 20.9 0.00 0.00 0.00 46 1010.9
20260506153503 8 253 8.0 20.9 0.00 0.00 0.00 45 1010.9
20260506153005 8 234 3.2 12.9 0.00 0.00 0.00 49 1010.8
20260506152504 7 240 6.4 16.1 0.00 0.00 0.00 50 1010.8
20260506152005 7 247 6.4 19.3 0.00 0.00 0.00 50 1010.9
20260506151504 7 245 6.4 19.3 0.00 0.00 0.00 48 1010.8
20260506151005 8 241 6.4 17.7 0.00 0.00 0.00 48 1010.8
20260506150504 8 245 9.7 22.5 0.00 0.00 0.00 47 1010.9
20260506150005 8 258 6.4 22.5 0.00 0.00 0.00 48 1010.9
20260506145504 8 270 3.2 22.5 0.00 0.00 0.00 49 1010.9
20260506145005 7 247 4.8 14.5 0.00 0.00 0.00 50 1010.9
20260506144504 7 247 6.4 14.5 0.00 0.00 0.00 50 1010.9
20260506144005 7 251 9.7 19.3 0.00 0.00 0.00 50 1010.8
20260506143005 8 257 11.3 20.9 0.00 0.00 0.00 48 1010.8
20260506142504 8 257 9.7 17.7 0.00 0.00 0.00 49 1010.8
20260506142005 8 250 8.0 17.7 0.00 0.00 0.00 49 1010.8
20260506141504 7 241 9.7 29.0 0.00 0.00 0.00 52 1010.8
20260506141007 7 247 9.7 29.0 0.00 0.00 0.00 51 1010.8
20260506135504 7 257 8.0 20.9 0.00 0.00 0.00 50 1010.8
20260506135005 7 252 9.7 22.5 0.00 0.00 0.00 52 1010.8
20260506134005 7 258 8.0 19.3 0.00 0.00 0.00 52 1010.9
20260506133504 7 252 11.3 19.3 0.00 0.00 0.00 51 1010.8
20260506133005 7 253 9.7 17.7 0.00 0.00 0.00 51 1010.9
20260506132504 7 245 11.3 25.7 0.00 0.00 0.00 52 1010.7
20260506132005 7 234 12.9 25.7 0.00 0.00 0.00 52 1010.8
20260506131504 7 241 11.3 32.2 0.00 0.00 0.00 51 1010.6
20260506131005 7 252 9.7 32.2 0.00 0.00 0.00 52 1010.6
20260506130504 7 250 9.7 22.5 0.00 0.00 0.00 52 1010.6
20260506130006 7 249 11.3 20.9 0.00 0.00 0.00 52 1010.5
20260506125504 7 254 11.3 24.1 0.00 0.00 0.00 52 1010.5
20260506125005 7 265 9.7 27.4 0.00 0.00 0.00 52 1010.5
20260506124504 7 257 9.7 29.0 0.00 0.00 0.00 52 1010.4
20260506124005 7 258 11.3 29.0 0.00 0.00 0.00 52 1010.4
20260506123504 7 270 11.3 25.7 0.00 0.00 0.00 52 1010.4
20260506123005 7 268 8.0 25.7 0.00 0.00 0.00 52 1010.5
20260506122504 7 275 6.4 22.5 0.00 0.00 0.00 52 1010.4
20260506122006 7 268 9.7 25.7 0.00 0.00 0.00 52 1010.3
20260506121505 7 265 12.9 27.4 0.00 0.00 0.00 51 1010.3
20260506121004 7 263 12.9 27.4 0.00 0.00 0.00 50 1010.2
20260506120505 7 261 11.3 27.4 0.00 0.00 0.00 48 1010.2
20260506120004 8 261 8.0 22.5 0.00 0.00 0.00 46 1010.1
20260506114505 8 266 12.9 25.7 0.00 0.00 0.00 44 1010.0
20260506114004 8 259 14.5 29.0 0.00 0.00 0.00 43 1010.0
20260506113505 8 251 12.9 29.0 0.00 0.00 0.00 43 1010.0
20260506113004 8 260 9.7 25.7 0.00 0.00 0.00 41 1009.8
20260506112505 8 271 9.7 22.5 0.00 0.00 0.00 39 1009.7
20260506112004 8 267 9.7 22.5 0.00 0.00 0.00 40 1009.6
20260506111505 8 270 9.7 24.1 0.00 0.00 0.00 40 1009.7
20260506111004 8 251 11.3 30.6 0.00 0.00 0.00 40 1009.6
20260506110505 8 243 16.1 30.6 0.00 0.00 0.00 40 1009.5
20260506110004 8 258 14.5 27.4 0.00 0.00 0.00 40 1009.6
20260506105505 8 262 12.9 25.7 0.00 0.00 0.00 39 1009.5
20260506105004 8 262 14.5 29.0 0.00 0.00 0.00 41 1009.3
20260506104505 8 268 9.7 29.0 0.00 0.00 0.00 41 1009.3
20260506104004 8 261 9.7 24.1 0.00 0.00 0.00 42 1009.3
20260506103506 8 258 11.3 24.1 0.00 0.00 0.00 42 1009.2
20260506103004 8 248 12.9 33.8 0.00 0.00 0.00 43 1009.2
20260506102505 8 253 14.5 33.8 0.00 0.00 0.00 43 1009.3
20260506102004 8 265 11.3 32.2 0.00 0.00 0.00 42 1009.2
20260506101503 8 257 12.9 25.7 0.00 0.00 0.00 43 1009.0
20260506100504 8 259 9.7 29.0 0.00 0.00 0.00 41 1009.2
20260506100005 8 248 8.0 19.3 0.00 0.00 0.00 41 1009.0
20260506095503 8 258 9.7 22.5 0.00 0.00 0.00 42 1008.9
20260506095003 8 268 9.7 24.1 0.00 0.00 0.00 42 1008.8
20260506094505 8 267 8.0 25.7 0.00 0.00 0.00 44 1008.8
20260506094004 8 267 9.7 25.7 0.00 0.00 0.00 44 1008.8
20260506093005 7 250 12.9 29.0 0.00 0.00 0.00 44 1008.6
20260506092504 7 264 11.3 29.0 0.00 0.00 0.00 45 1008.6
20260506092005 7 263 11.3 29.0 0.00 0.00 0.00 44 1008.6
20260506091504 7 248 11.3 29.0 0.00 0.00 0.00 44 1008.4
20260506091005 7 240 12.9 27.4 0.00 0.00 0.00 44 1008.5
20260506090504 7 252 11.3 29.0 0.00 0.00 0.00 46 1008.5